Home > Weather > Kelowna > Past weeks

Flag for Canada Past Weather in Kelowna, British Columbia, Canada — Yesterday and Last 2 Weeks

Now
61 °F

Mostly cloudy.


Feels Like: 61 °F
Forecast: 53 / 75 °F
Wind: 9 mph from South

Location: Kelowna Airport

Current Time: Jun 24, 2016 at 6:35:35 PM

Latest Report: Jun 24, 2016 at 6:00 PM


Visibility: 9 mi

Pressure: 30.06 "Hg

Humidity: 68%

Dew Point: 50 °F

Location of KelownaLocation

Past Weather in Kelowna — Graph

°F

Kelowna Temperature Yesterday

Maximum temperature yesterday: 72 °F (at 3:00 PM)
Minimum temperature yesterday: 54 °F (at 2:00 AM)
Average temperature yesterday: 62 °F

High & Low Weather Summary for the Past Weeks

 TemperatureHumidityPressure
High79 °F (Jun 22, 3:00 PM)94% (Jun 18, 5:55 PM)30.40 "Hg (Jun 18, 5:55 PM)
Low36 °F (Jun 15, 4:00 AM)18% (Jun 16, 4:00 PM)29.73 "Hg (Jun 13, 6:00 PM)
Average58 °F59%30.00 "Hg
* Reported Jun 9 5:00 PM — Jun 24 5:00 PM, Kelowna, Weather by CustomWeather, © 2016

Note: Actual official high and low records may vary slightly from our data, if they occured in-between our weather recording intervals... More about our weather records

Advertising

Kelowna Weather History for the Previous 24 Hours

Scroll right to see more
 ConditionsComfort  
Time TempWeatherWind HumidityBarometerVisibility
5:00 PM
Fri, Jun 24
59 °FBroken clouds.3 mph77%30.07 "Hg9 mi
4:00 PM55 °FLight rain. Mostly cloudy.7 mph77%30.08 "Hg9 mi
3:00 PM57 °FBroken clouds.10 mph67%30.08 "Hg9 mi
2:56 PM57 °FMostly cloudy.9 mph67%30.08 "Hg9 mi
2:00 PM55 °FMostly cloudy.12 mph72%30.07 "Hg9 mi
1:00 PM55 °FLight rain. Mostly cloudy.10 mph77%30.06 "Hg9 mi
12:00 PM55 °FOvercast.12 mph72%30.04 "Hg9 mi
11:49 AM57 °FOvercast.12 mph72%30.03 "Hg9 mi
11:00 AM57 °FMostly cloudy.14 mph72%30.01 "Hg9 mi
10:00 AM55 °FOvercast.8 mph82%29.99 "Hg9 mi
9:51 AM55 °FMore clouds than sun.8 mph88%29.99 "Hg9 mi
9:00 AM55 °FLight rain. Cloudy.8 mph88%29.98 "Hg9 mi
8:00 AM55 °FRain. Overcast.3 mph88%29.96 "Hg7 mi
7:51 AM55 °FRain. Fog.3 mph88%29.96 "Hg6 mi
7:00 AM55 °FLight rain. More clouds than sun.6 mph88%29.95 "Hg9 mi
6:00 AM54 °FLight rain. Overcast.No wind94%29.94 "Hg9 mi
5:00 AM54 °FLight rain. Overcast.5 mph94%29.94 "Hg9 mi
4:00 AM54 °FLight rain. Overcast.7 mph94%29.94 "Hg9 mi
3:00 AM55 °FLight rain. Overcast.No wind88%29.94 "Hg9 mi
2:00 AM57 °FLight rain. Overcast.5 mph82%29.94 "Hg9 mi
1:03 AM57 °FLight rain. Mostly cloudy.5 mph82%29.93 "Hg9 mi
12:00 AM59 °FOvercast.3 mph72%29.93 "Hg9 mi
11:02 PM
Thu, Jun 23
61 °FThundershowers. Mostly cloudy.5 mph68%29.93 "Hg9 mi
10:00 PM61 °FOvercast.8 mph77%29.92 "Hg9 mi
9:00 PM64 °FMostly cloudy.6 mph56%29.91 "Hg9 mi
8:00 PM68 °FPartly sunny.2 mph53%29.90 "Hg9 mi
7:00 PM68 °FPartly sunny.3 mph49%29.89 "Hg9 mi
6:00 PM66 °FScattered clouds.3 mph64%29.90 "Hg9 mi
Weather by CustomWeather, © 2016

See weather overviewHow to use our weather pages